Gary, IN

4:01 AM CDT on August 30, 2016 (GMT -0500)
Gary / Chicago

Weather History for KGYY - February, 2014

Change the Weather History Date:

Thursday, February 27, 2014

  Actual Average Record
Temperature  
Mean Temperature 14 °F -  
Max Temperature 21 °F 38 °F 70 °F (1976)
Min Temperature 6 °F 24 °F -3 °F (2015)
Degree Days  
Heating Degree Days 52    
Moisture  
Dew Point -3 °F    
Average Humidity 52    
Maximum Humidity 65    
Minimum Humidity 34    
Precipitation  
Precipitation 0.00 in - - ()
Sea Level Pressure  
Sea Level Pressure 30.01 in    
Wind  
Wind Speed 13 mph (WNW)    
Max Wind Speed 30 mph    
Max Gust Speed 40 mph    
Visibility 13 miles    
Events      
Averages and records for this station are not official NWS values.
T = Trace of Precipitation, MM = Missing Value Source: NWS Daily Summary

Daily Weather History Graph

Daily Weather History Graph

Search for Another Location

Airport or City:

Trip Planner

Search our weather history database for the weather conditions in past years. The results will help you decide how hot, cold, wet, or windy it might be!

Date:

Astronomy

Feb. 27, 2014 Rise Set
Actual Time 6:27 AM CST 5:37 PM CST
Civil Twilight 5:59 AM CST 6:05 PM CST
Nautical Twilight 5:27 AM CST 6:37 PM CST
Astronomical Twilight 4:55 AM CST 7:10 PM CST
Moon 5:00 AM CST (2/27) 4:02 PM CST (2/27)
Length of Visible Light 12h 06m
Length of Day
11h 10m
Waning Crescent, 4% of the Moon is Illuminated
Feb 27
Waning Crescent
Mar 1
New
Mar 8
First Quarter
Mar 16
Full
Mar 23
Last Quarter

Hourly Weather History & Observations

Time (CST) Temp. Windchill Dew Point Humidity Pressure Visibility Wind Dir Wind Speed Gust Speed Precip Events Conditions
12:15 AM 20.8 °F 9.0 °F 6.3 °F 53% 29.66 in 10.0 mi WSW 11.5 mph 18.4 mph N/A   Clear
12:35 AM 21.2 °F 7.3 °F 6.4 °F 53% 29.66 in 10.0 mi West 16.1 mph 24.2 mph N/A   Scattered Clouds
12:55 AM 21.2 °F 5.6 °F 7.0 °F 54% 29.66 in 10.0 mi West 20.7 mph 32.2 mph N/A   Scattered Clouds
1:15 AM 21.2 °F 3.0 °F 6.4 °F 53% 29.67 in 10.0 mi West 29.9 mph 39.1 mph N/A   Mostly Cloudy
1:35 AM 21.2 °F 4.9 °F 6.8 °F 54% 29.67 in 10.0 mi West 23.0 mph 27.6 mph N/A   Overcast
1:55 AM 20.3 °F 3.0 °F 4.8 °F 51% 29.68 in 10.0 mi West 25.3 mph 32.2 mph N/A   Mostly Cloudy
2:15 AM 18.9 °F 2.1 °F 2.7 °F 49% 29.69 in 10.0 mi WNW 21.9 mph 34.5 mph N/A   Scattered Clouds
2:35 AM 18.1 °F 2.4 °F 2.7 °F 51% 29.70 in 10.0 mi West 18.4 mph 26.5 mph N/A   Clear
2:55 AM 17.4 °F 0.6 °F 2.3 °F 52% 29.72 in 10.0 mi WNW 20.7 mph 32.2 mph N/A   Clear
3:15 AM 16.7 °F 0.1 °F 2.3 °F 53% 29.73 in 10.0 mi WNW 19.6 mph 27.6 mph N/A   Clear
3:35 AM 15.8 °F -2.3 °F 3.7 °F 59% 29.74 in 7.0 mi WNW 23.0 mph 33.4 mph N/A   Scattered Clouds
4:45 AM 12.2 °F -4.8 °F -5.8 °F 45% 29.82 in 10.0 mi WNW 17.3 mph 40.3 mph N/A   Partly Cloudy
5:45 AM 10.4 °F -7.7 °F -7.6 °F 44% 29.87 in 10.0 mi WNW 18.4 mph 39.1 mph N/A   Partly Cloudy
6:45 AM 10.4 °F -7.2 °F -7.6 °F 44% 29.91 in 15.0 mi WNW 17.3 mph 34.5 mph N/A   Mostly Cloudy
7:45 AM 8.6 °F -9.5 °F -11.2 °F 40% 29.98 in 15.0 mi WNW 17.3 mph 34.5 mph N/A   Scattered Clouds
8:45 AM 8.6 °F -7.7 °F -9.4 °F 44% 30.03 in 15.0 mi NW 13.8 mph 34.5 mph N/A   Scattered Clouds
9:45 AM 10.4 °F -4.1 °F -11.2 °F 37% 30.07 in 15.0 mi WNW 11.5 mph 28.8 mph N/A   Partly Cloudy
10:45 AM 10.4 °F -4.8 °F -13.0 °F 34% 30.10 in 20.0 mi NW 12.7 mph 28.8 mph N/A   Partly Cloudy
11:45 AM 12.2 °F -3.1 °F -11.2 °F 34% 30.12 in 20.0 mi NNW 13.8 mph 25.3 mph N/A   Scattered Clouds
12:45 PM 12.2 °F -1.0 °F -9.4 °F 38% 30.12 in 20.0 mi WNW 10.4 mph - N/A   Partly Cloudy
1:45 PM 12.2 °F 0.7 °F -9.4 °F 38% 30.12 in 20.0 mi NNE 8.1 mph - N/A   Partly Cloudy
2:45 PM 14.0 °F 3.9 °F -5.8 °F 41% 30.12 in 20.0 mi NNE 6.9 mph - N/A   Partly Cloudy
3:45 PM 14.0 °F 2.9 °F -5.8 °F 41% 30.14 in 20.0 mi North 8.1 mph - N/A   Partly Cloudy
4:45 PM 12.2 °F 0.7 °F -5.8 °F 45% 30.14 in 20.0 mi NNE 8.1 mph - N/A   Partly Cloudy
5:45 PM 10.4 °F 0.8 °F -4.0 °F 52% 30.16 in 20.0 mi NNE 5.8 mph - N/A   Partly Cloudy
6:45 PM 10.4 °F -1.5 °F -5.8 °F 48% 30.17 in 20.0 mi NNE 8.1 mph - N/A   Partly Cloudy
7:45 PM 8.6 °F - -2.2 °F 62% 30.18 in 20.0 mi Calm Calm - N/A   Partly Cloudy
8:15 PM 9.5 °F 3.0 °F -2.0 °F 60% 30.18 in 10.0 mi SSE 3.5 mph - N/A   Clear
8:35 PM 9.5 °F 3.0 °F -2.6 °F 58% 30.18 in 10.0 mi South 3.5 mph - N/A   Clear
8:45 PM 8.6 °F - -2.2 °F 62% 30.19 in 20.0 mi Calm Calm - N/A   Scattered Clouds
8:55 PM 9.0 °F 2.4 °F -2.7 °F 59% 30.19 in 10.0 mi South 3.5 mph - N/A   Clear
9:15 PM 8.6 °F 0.1 °F -3.1 °F 59% 30.20 in 10.0 mi South 4.6 mph - N/A   Clear
9:35 PM 8.4 °F - -3.3 °F 59% 30.20 in 10.0 mi Calm Calm - N/A   Clear
9:45 PM 8.6 °F - -4.0 °F 57% 30.20 in 20.0 mi Calm Calm - N/A   Partly Cloudy
9:55 PM 8.2 °F - -3.3 °F 59% 30.20 in 10.0 mi Calm Calm - N/A   Clear
10:15 PM 8.1 °F - -2.6 °F 62% 30.20 in 10.0 mi Calm Calm - N/A   Clear
10:35 PM 7.7 °F 1.0 °F -2.6 °F 63% 30.20 in 10.0 mi SSW 3.5 mph - N/A   Clear
10:55 PM 7.7 °F - -3.1 °F 61% 30.20 in 10.0 mi Calm Calm - N/A   Clear
11:15 PM 7.5 °F - -3.8 °F 60% 30.20 in 10.0 mi Calm Calm - N/A   Clear
11:35 PM 6.8 °F - -2.9 °F 64% 30.20 in 10.0 mi Calm Calm - N/A   Clear
11:55 PM 6.6 °F -0.3 °F -2.9 °F 65% 30.20 in 10.0 mi SSW 3.5 mph - N/A   Clear